Regional Weather Roundup
Issued by NWS

Home | Current Version | Previous Version | Graphics & Text | Print | Product List | Glossary On
Versions: 1 2 3 4 5 6 7 8 9 10 11 12 13 14 15 16 17 18 19 20 21 22 23 24 25 26 27 28 29 30 31 32 33 34 35 36 37 38 39 40 41 42 43 44 45 46 47 48 49 50
060
ASUS43 KMPX 121210
RWRMN
WEATHER ROUNDUP FOR MINNESOTA
NATIONAL WEATHER SERVICE TWIN CITIES/CHANHASSEN MN
600 AM CST FRI FEB 12 2016


NOTE: "FAIR" INDICATES FEW OR NO CLOUDS BELOW 12,000 FEET WITH NO
SIGNIFICANT WEATHER AND/OR OBSTRUCTIONS TO VISIBILITY. N/A MEANS
CURRENT SKY AND/OR WEATHER CONDITIONS ARE NOT AVAILABLE.

MNZ060>063-068>070-121300-
   Twin Cities Metro

CITY           SKY/WX    TMP DP  RH WIND       PRES   REMARKS
TWIN CITIES    PTCLDY     9   2  73 NW16G28   30.28R WCI  -8
6HR MIN TEMP:   9; 6HR MAX TEMP:  15;

ST PAUL        CLEAR     10   2  69 NW15      30.29R WCI  -7
CRYSTAL        CLEAR      8   1  73 NW10      30.28R WCI  -6
BLAINE         CLEAR     10   3  72 NW10      30.27R WCI  -3
LAKEVILLE      CLEAR      9   3  78 NW17      30.26R WCI -10
EDEN PRAIRIE   CLEAR     10   2  69 NW13      30.28R WCI  -5
6HR MIN TEMP:  10; 6HR MAX TEMP:  16;

SOUTH ST PAUL  CLEAR     11   3  71 NW15G21   30.27R WCI  -6
LAKE ELMO      FAIR      10   3  72 NW10      30.27R WCI  -3
$$
MNZ001>005-007-008-013>017-022>024-027-028-121300-
   Northwest Minnesota

CITY           SKY/WX    TMP DP  RH WIND       PRES   REMARKS
BEMIDJI        MOCLDY    -7 -12  78 NW13      30.32R WCI -26
HALLOCK        CLEAR     -6 -13  71 N16       30.50R WCI -28
ROSEAU         CLEAR     -8 -15  71 N15       30.43R WCI -29
WARROAD        CLEAR     -9 -17  70 NW9G16    30.40R WCI -27
THIEF RVR FALL CLEAR     -6 -17  59 NW17      30.43R WCI -28
CROOKSTON      CLEAR     -2  -9  71 N15       30.49R WCI -22
FOSSTON        CLEAR     -9 -13  84 NW10      30.39R WCI -28
DETROIT LAKES  CLEAR      0  -6  78 N18       30.37R WCI -22
MOORHEAD       MOCLDY     1  -6  71 N13       30.47R WCI -16
PARK RAPIDS    CLEAR     -2  -9  72 N14       30.30R WCI -21
MAHNOMEN       FAIR      -6 -12  76 NW13      30.39R WCI -26
$$
MNZ006-009>011-018-025>026-121300-
   North Central Minnesota

CITY           SKY/WX    TMP DP  RH WIND       PRES   REMARKS
BAUDETTE       CLEAR    -10 -17  71 NW16      30.34R WCI -33
FLAG ISLAND    CLEAR    -11 -18  70 NW17      30.37R WCI -35
INTL FALLS     CLOUDY    -9 -15  75 NW16      30.28R WCI -32
6HR MIN TEMP:  -9; 6HR MAX TEMP:   1;

WASKISH        PTCLDY    -8 -13  77 NW9G16    30.34R WCI -25
LONGVILLE      CLEAR     -2  -8  78 NW9G16    30.28R WCI -18
GRAND RAPIDS   PTCLDY    -2  -9  71 NW16      30.22R WCI -23
CRANE LAKE     PTCLDY    -8 -11  84 NW10      30.24R WCI -26
ORR            CLOUDY    -8 -13  77 NW10G17   30.19R WCI -26
COOK           PTCLDY    -6 -11  77 NW8G16    30.21R WCI -21
WALKER         FAIR      -4 -10  75 NW14G21   30.30R WCI -24
$$
MNZ012-019>021-037-121300-
   Northeast Minnesota

CITY           SKY/WX    TMP DP  RH WIND       PRES   REMARKS
DULUTH         CLEAR      0  -8  69 NW16G29   30.14R WCI -20
6HR MIN TEMP:   0; 6HR MAX TEMP:   9;

ELY            MOCLDY    -6 -11  77 NW9G18    30.15R HAZE    WCI -22
HIBBING        CLOUDY    -5 -11  75 NW23G30   30.19R WCI -30
EVELETH        PTCLDY     0  -8  71 NW14G26   30.18R WCI -19
DULUTH HARBOR  CLEAR      7  -4  61 W12       30.24R WCI  -9
TWO HARBORS    CLEAR      3  -8  60 NW10G16   30.13R WCI -12
SILVER BAY     CLEAR      0  -9  65 NW7       30.12R WCI -13
GRAND MARAIS     N/A      1 -10  60 VRB6      30.15R WCI -10
G MARAIS ARPRT MOCLDY    -6 -15  65 NW12G20   29.99R HAZE    WCI -24
$$
MNZ029>031-032-039>041-046>048-054>057-064-121300-
   West Central Minnesota

CITY           SKY/WX    TMP DP  RH WIND       PRES   REMARKS
FERGUS FALLS   CLEAR      1  -6  71 N10       30.44R WCI -14
WHEATON        CLEAR      7   0  72 NW15G21   30.46R WCI -11
MORRIS         MOCLDY     7   1  78 NW16      30.38R HAZE    WCI -11
ALEXANDRIA     CLEAR      3  -5  69 NW15      30.32R WCI -16
ELBOW LAKE     FAIR       2  -4  74 NW15      30.39R WCI -16
WADENA         CLEAR     -2  -8  78 NW9       30.32R WCI -18
GLENWOOD       CLEAR      1  -2  85 NW12      30.33R WCI -15
APPLETON       CLOUDY     9   1  72 N22       30.40R WCI -11
BENSON         PTCLDY     7   0  72 N13       30.37R WCI  -9
ORTONVILLE     MOCLDY     9  -2  61 N22G31    30.40R WCI -11
MADISON        FLURRIES  12   9  85 N20       30.40R WCI  -6
WILLMAR        FAIR       9   5  85 NW18G24   30.34R WCI -10
$$
MNZ033>034-036-042>043-049>051-058-059-121300-
   Central Minnesota

CITY           SKY/WX    TMP DP  RH WIND       PRES   REMARKS
ST CLOUD       CLEAR      4  -2  76 NW12      30.29R WCI -12
6HR MIN TEMP:   2; 6HR MAX TEMP:  13;

SAUK CENTRE    FAIR       2  -4  75 NW15      30.31R WCI -16
PAYNESVILLE    CLEAR      5   0  77 NW12      30.32R WCI -10
AITKIN         CLEAR      3  -6  66 NW6       30.25R WCI  -8
PINE RIVER     CLEAR      0  -6  78 NW13G20   30.31R WCI -18
BRAINERD       CLEAR      2  -5  72 NW12      30.28R WCI -15
STAPLES        CLEAR      0  -6  78 NW9       30.30R WCI -16
LONG PRAIRIE   FAIR       1  -4  78 NW13      30.31R WCI -16
LITTLE FALLS   CLEAR      5  -4  66 NW7       30.31R WCI  -7
LITCHFIELD     CLEAR      9   5  85 NW12G18   30.32R WCI  -6
BUFFALO        CLEAR      7   1  79 W9        30.31R WCI  -7
MAPLE LAKE     CLEAR      8   3  82 NW9       30.30R WCI  -6
$$
MNZ037-044-045-052-053-121300-
   East Central Minnesota

CITY           SKY/WX    TMP DP  RH WIND       PRES   REMARKS
PRINCETON      CLEAR      5   0  78 W9        30.27R WCI  -9
MORA           CLEAR      7   0  72 NW13G18   30.27R WCI  -9
CAMBRIDGE      CLEAR      9   0  66 CALM      30.26R
RUSH CITY      PTCLDY     8   0  69 NW8       30.26R WCI  -5
MOOSE LAKE     CLEAR      5  -4  66 NW7       30.21R WCI  -7
HINCKLEY       FAIR       7   0  72 NW8       30.25R WCI  -6
CLOQUET        CLEAR      1  -6  71 W9        30.18R WCI -14
MCGREGOR       PTCLDY     3   0  85 NW7       30.24R WCI  -9
$$
MNZ071>073-080-081-089-090-097-098-121300-
   Southwest Minnesota

CITY           SKY/WX    TMP DP  RH WIND       PRES   REMARKS
MONTEVIDEO     MOCLDY     9   5  85 N16G23    30.39R WCI  -9
GRANITE FALLS  MOCLDY    11   7  84 NW14      30.39R WCI  -4
CANBY          FLURRIES  15  11  85 NW13      30.40R WCI   0
MARSHALL       CLOUDY    10   5  80 N17       30.37R WCI  -8
REDWOOD FALLS  PTCLDY    10   5  80 NW13      30.35R WCI  -5
OLIVIA         CLEAR     10   5  79 NW14      30.34R WCI  -5
PIPESTONE      CLOUDY    14   3  62 N9        30.31R WCI   2
WINDOM         FLURRIES  10   7  85 NW17      30.31R WCI  -7
WORTHINGTON    CLOUDY    10   5  79 N18       30.32R WCI  -8
JACKSON        CLOUDY    12   7  79 NW23      30.30R WCI  -7
TRACY          PTCLDY    11   8  85 N13G20    30.35R WCI  -4
SLAYTON        CLOUDY    10   8  91 NW15      30.32R WCI  -6
$$
MNZ065>067-074>077-082>085-091>093-121300-
   South Central Minnesota

CITY           SKY/WX    TMP DP  RH WIND       PRES   REMARKS
MANKATO        CLEAR     12   7  79 NW16      30.29R WCI  -4
NEW ULM        CLEAR     10   5  79 NW15      30.32R WCI  -6
ST JAMES       CLOUDY    12   9  85 NW16      30.33R WCI  -4
FAIRMONT       CLOUDY    12   7  79 NW18      30.28R WCI  -5
GLENCOE        CLEAR     10   5  79 NW16G23   30.30R WCI  -7
FARIBAULT      CLEAR     10   7  85 NW12      30.26R WCI  -4
OWATONNA       PTCLDY    12   7  79 NW16      30.25R WCI  -4
WASECA         CLOUDY    14   9  79 NW15      30.28R WCI  -1
ALBERT LEA     CLOUDY    14  10  85 NW9G16    30.24R WCI   2
$$
MNZ078>079-086>088-094>096-121300-
   Southeast Minnesota

CITY           SKY/WX    TMP DP  RH WIND       PRES   REMARKS
ROCHESTER      MOCLDY    11   7  84 NW16      30.20R WCI  -6
6HR MIN TEMP:  11; 6HR MAX TEMP:  12; 6HR PCP:  0.01;

RED WING       CLEAR     12   3  67 NW9G17    30.24R WCI   0
STANTON        CLEAR     11   5  74 NW12      30.25R WCI  -3
DODGE CENTER   PTCLDY    10   7  85 NW13      30.21R WCI  -5
WINONA         CLOUDY    16  10  79 NW12      30.23R WCI   3
AUSTIN         FLURRIES  12  10  92 NW16G22   30.23R WCI  -4
PRESTON        CLOUDY    11   7  85 NW13      30.20R WCI  -5
$$
ABBREVIATIONS USED IN REMARKS
   TC - TEMPERATURES IN CELSIUS
  WCI - WIND CHILL INDEX
   HX - HEAT INDEX
  VSB - VISIBILITY
$$




USA.gov is the U.S. government's official web portal to all federal, state and local government web resources and services.